Home   Weather   Tyler   Past weeks

Flag for USA Past Weather in Tyler, Texas, USA — Yesterday and Last 2 Weeks

Now
63 °F

Overcast.


Feels Like: 63 °F
Forecast: 55 / 68 °F
Wind: No wind

Location: Fox Stephens Field - Gilmer Municipal Airport

Current Time: Jan 21, 2017 at 1:50:24 pm

Latest Report: Jan 21, 2017 at 1:35 pm


Visibility: 10 mi

Pressure: 29.46 "Hg

Humidity: 88%

Dew Point: 60 °F

Location of TylerLocation

Past Weather in Tyler — Graph

°F

Tyler Temperature Yesterday

Maximum temperature yesterday: 73 °F (at 3:55 pm)
Minimum temperature yesterday: 53 °F (at 7:15 am)
Average temperature yesterday: 61 °F

High & Low Weather Summary for the Past Weeks

 TemperatureHumidityPressure
High77 °F (Jan 12, 1:55 pm)100% (Jan 14, 6:55 am)30.76 "Hg (Jan 14, 6:55 am)
Low14 °F (Jan 7, 7:15 am)20% (Jan 8, 2:55 pm)29.55 "Hg (Jan 21, 12:15 pm)
Average53 °F81%30.14 "Hg
* Reported Jan 6 12:15 pm — Jan 21 12:15 pm, Tyler, Weather by CustomWeather, © 2017

Note: Actual official high and low records may vary slightly from our data, if they occured in-between our weather recording intervals... More about our weather records

Advertising

Tyler Weather History for the Previous 24 Hours

Scroll right to see more
 ConditionsComfort  
Time TempWeatherWind HumidityBarometerVisibility
12:15 pm
Sat, Jan 21
62 °FLow clouds.No wind93%29.55 "Hg10 mi
11:55 am61 °FLow clouds.No wind94%29.57 "Hg10 mi
11:15 am60 °FLow clouds.No wind96%29.60 "Hg10 mi
10:55 am60 °FLow clouds.3 mph97%29.60 "Hg10 mi
10:15 am58 °FLow clouds.6 mph99%29.63 "Hg7 mi
9:55 am58 °FFog.5 mph99%29.62 "Hg5 mi
9:15 am56 °FFog.7 mph100%29.62 "Hg0 mi
8:55 am55 °FFog.5 mph100%29.61 "Hg0 mi
8:15 am55 °FFog.7 mph100%29.62 "Hg0 mi
7:55 am55 °FFog.8 mph100%29.60 "Hg0 mi
7:15 am55 °FFog.9 mph98%29.59 "Hg3 mi
6:35 am51 °FLow clouds.No wind98%29.58 "Hg10 mi
5:55 am47 °FLow clouds.3 mph99%29.60 "Hg7 mi
5:15 am48 °FThunderstorms. Low clouds.No wind99%29.60 "Hg10 mi
4:55 am48 °FFog.No wind99%29.59 "Hg5 mi
4:15 am48 °FFog.No wind97%29.61 "Hg3 mi
3:55 am50 °FThunderstorms. Low clouds.No wind96%29.62 "Hg10 mi
3:15 am49 °FLow clouds.No wind96%29.62 "Hg7 mi
2:55 am54 °FLow clouds.3 mph89%29.62 "Hg10 mi
2:35 am55 °FLow clouds.3 mph87%29.63 "Hg10 mi
1:55 am51 °FFog.No wind95%29.64 "Hg3 mi
1:15 am51 °FLow clouds.No wind94%29.65 "Hg10 mi
12:55 am57 °FLow clouds.No wind81%29.64 "Hg10 mi
12:35 am54 °FLow clouds.5 mph90%29.65 "Hg7 mi
11:55 pm
Fri, Jan 20
58 °FLow clouds.3 mph82%29.65 "Hg10 mi
11:15 pm58 °FLow clouds.3 mph81%29.67 "Hg10 mi
10:55 pm58 °FLow clouds.5 mph82%29.67 "Hg10 mi
10:15 pm59 °FLow clouds.3 mph79%29.68 "Hg10 mi
9:55 pm60 °FLow clouds.5 mph78%29.69 "Hg10 mi
9:35 pm61 °FLow clouds.6 mph76%29.68 "Hg10 mi
8:55 pm61 °FLow clouds.6 mph76%29.67 "Hg10 mi
8:15 pm62 °FLow clouds.5 mph72%29.67 "Hg10 mi
7:55 pm63 °FLow clouds.6 mph69%29.67 "Hg10 mi
7:35 pm63 °FLow clouds.7 mph68%29.66 "Hg10 mi
6:55 pm63 °FThunderstorms. Low clouds.5 mph65%29.66 "Hg10 mi
6:15 pm65 °FLow clouds.5 mph57%29.65 "Hg10 mi
5:55 pm66 °FLow clouds.7 mph55%29.65 "Hg10 mi
5:15 pm69 °FLow clouds.6 mph45%29.65 "Hg10 mi
4:55 pm71 °FLow clouds.7 mph43%29.65 "Hg10 mi
4:15 pm72 °FLow clouds.9 mph40%29.65 "Hg10 mi
3:55 pm73 °FLow clouds.13 mph39%29.65 "Hg10 mi
3:15 pm72 °FLow clouds.10 mph37%29.65 "Hg10 mi
2:55 pm72 °FLow clouds.9 mph38%29.66 "Hg10 mi
2:15 pm71 °FLow clouds.12 mph39%29.67 "Hg10 mi
1:55 pm70 °FLow clouds.10 mph39%29.67 "Hg10 mi
1:15 pm69 °FLow clouds.10 mph43%29.69 "Hg10 mi
Weather by CustomWeather, © 2017

See weather overviewHow to use our weather pages